Regional Weather Roundup
Issued by NWS

Home | Current Version | Previous Version | Graphics & Text | Print | Product List | Glossary On
Versions: 1 2 3 4 5 6 7 8 9 10 11 12 13 14 15 16 17 18 19 20 21 22 23 24 25 26 27 28 29 30 31 32 33 34 35 36 37 38 39 40 41 42 43 44 45 46 47 48 49 50
000
ASUS43 KBIS 242310
RWRND

NORTH DAKOTA REGIONAL WEATHER ROUNDUP
NATIONAL WEATHER SERVICE BISMARCK ND
500 PM CST MON NOV 24 2014

NOTE: "FAIR" INDICATES FEW OR NO CLOUDS BELOW 12,000 FEET WITH NO
SIGNIFICANT WEATHER AND/OR OBSTRUCTIONS TO VISIBILITY.


NDZ001>003-009>011-017-250000-
NORTHWEST NORTH DAKOTA

CITY           SKY/WX    TMP DP  RH WIND       PRES   REMARKS
WILLISTON      CLOUDY    26  19  74 SW5       29.99R
MINOT          PTCLDY    22  12  65 W7        29.95R WCI  13
MINOT AFB      MOCLDY    18  12  77 W9        29.95S WCI   7
$$

NDZ018>021-031>035-040>046-250000-
SOUTHWEST NORTH DAKOTA

CITY           SKY/WX    TMP DP  RH WIND       PRES   REMARKS
BISMARCK       CLEAR     25   6  44 NW12      30.00R WCI  14
DICKINSON      MOCLDY    24  17  74 W16       29.95S WCI  11
GARRISON         N/A     21  13  71 NW9       29.97R WCI  11
HETTINGER ARPT PTCLDY    24  18  77 NW7       30.00R WCI  16
$$

NDZ004>008-012>016-024-026-027-054-250000-
NORTHEAST NORTH DAKOTA

CITY           SKY/WX    TMP DP  RH WIND       PRES   REMARKS
GRAND FORKS    CLEAR     15   7  70 N14       29.93R WCI   0
GRND FRKS AFB  CLEAR     16   6  66 N13       29.94R WCI   2
DEVILS LAKE    CLEAR     16  -2  45 NW7       29.92R WCI   6
$$

NDZ022-023-025-028>030-036>039-047>053-250000-
SOUTHEAST NORTH DAKOTA

CITY           SKY/WX    TMP DP  RH WIND       PRES   REMARKS
FARGO          CLEAR     18  10  71 N21       29.91R WCI   1
JAMESTOWN      CLEAR     17   0  47 NW13G21   29.94R WCI   4
$$



USA.gov is the U.S. government's official web portal to all federal, state and local government web resources and services.